Reflectivity
-20 -20 -3 -20 -20 -20 -20 -20 -20 -20 -20 -20 -20 -20 -20 -20 -20 -20 -20 -20 -20 -20 3 -20 -20 -20 -20 -20 -20 -20 -20 -20 -20 -15 -18 10 -20 -20 -17 -20 -20 -20 -20 -20
-20 -20 -20 -20 -20 -20 -20 -20 -20 -20 -20 -20 -20 -20 -20 -20 -20 -20 -20 -20 -20 -20 -20 -19 -20 -20 -20 -20 -20 -20 -20 -20 -15 2 13 -19 11 -20 -20 -20 -20 -20 -20 -20
-20 -20 -20 -20 -20 -20 -20 -20 -20 -20 -20 -20 -20 -20 -20 -20 -20 -20 -20 -20 -20 -20 -20 6 -20 -20 -20 -20 -20 -20 -20 -17 -9 11 -19 17 -6 -20 -15 -8 -17 -16 -20 -20
-20 -20 -20 -20 -20 -20 -20 -20 -20 -20 -20 -20 -20 -20 -20 -20 -20 -20 -20 -20 -20 -20 -20 -20 -20 -20 -20 -20 -20 -20 -16 7 2 3 1 13 2 9 10 7 1 -8 -7 -10
-20 -20 -20 -20 -20 -20 -20 -20 -20 -20 -20 -20 -20 -20 -20 -20 -20 -20 -20 -20 -20 -20 -20 -20 -20 -20 -20 -20 -20 -19 5 -16 25 20 13 -2 9 17 15 10 5 -9 -9 2
-20 -20 -20 -20 -20 -20 -20 -20 -20 -20 -20 -20 -20 -20 -20 -20 -20 -20 -20 -20 -20 -20 -20 -20 -20 -20 -20 -20 -20 -20 -16 14 -3 15 19 20 15 17 12 9 8 -1 5 -10
-20 -20 -20 -20 -20 -20 -20 -20 -20 -20 -20 -20 -20 -20 -20 -20 -20 -20 -20 -20 -20 -20 -20 -20 -20 -20 -20 -20 -19 13 23 19 15 16 21 16 12 12 1 -3 3 1 4 3
-20 -20 -20 -20 -20 -20 -20 -20 -20 -20 -20 -20 -20 -20 -20 -20 -20 -20 -20 -20 -20 -20 -20 -20 -20 -20 -20 -7 26 18 4 21 18 15 16 10 8 5 -4 1 6 -7 -19 -20
-20 -20 -20 -20 -20 -20 -20 -20 -20 -20 -20 -20 -20 -20 -20 -20 -20 -20 -20 -20 -20 -20 -20 -20 -20 -20 13 -6 -15 18 23 18 11 8 6 7 -1 2 1 -12 -20 -20 -20 -20
-20 -20 -20 -20 -20 -20 -20 -20 -20 -20 -20 -20 -20 -20 -20 -20 -20 -20 -20 -20 -20 -20 -20 -20 -18 -6 20 19 4 -5 -3 -6 2 4 -17 -19 -20 -20 -20 -20 -20 -20 -13 -20
-20 -20 -20 -20 -20 -20 -20 -20 -20 -20 -20 -20 -20 -20 -20 -20 -20 -20 -20 -20 -20 -20 -10 -8 16 10 -1 -10 -9 2 10 3 -20 -16 -20 -20 -20 -20 -20 -20 -20 -20 -20 -8
-20 -20 -20 -20 -20 -20 -20 -20 -20 -20 -20 -20 -20 -20 -20 -20 -20 -20 -20 -17 -20 -20 -20 -20 -20 -20 -20 -18 -18 -18 -20 -20 -20 -20 -20 -20 -20 -20 -20 -20 -20 -20 -20 -20
-20 -20 -20 -20 -20 -20 -20 -20 -20 -20 -20 -20 -20 -20 -20 -20 -20 -5 -20 -20 -20 -20 -20 -20 -20 -20 -20 -20 -20 -20 -20 -20 -20 -20 -20 -20 -20 -16 -15 -20 -19 -20 -20 -20
-20 -20 -20 -20 -20 -20 -20 -20 -20 -20 -20 -20 -20 -20 -20 -20 -20 -20 -20 -20 -20 -20 -20 -20 -20 -20 -20 -20 -20 -20 -20 -20 -20 -20 -20 -20 -20 -9 -20 -20 -20 -20 -20 -20
-20 -20 -20 -20 -20 -20 -20 -20 -20 -20 -20 -20 -20 -20 -20 -20 -20 -20 -20 -20 -20 -20 -20 -20 -20 -20 -20 -20 -20 -20 -20 -20 -20 -20 -20 -20 -20 -20 -20 -20 -20 -20 -20 -20
-20 -20 -20 -20 -20 -20 -20 -20 -20 -20 -20 -20 -20 -20 -20 -20 -20 -20 -20 -20 -20 -20 -20 -20 -20 -20 -20 -20 -20 -20 -20 -20 -20 -18 -19 -20 -20 -11 -17 -9 -19 -3 -5 4
-20 -20 -20 -20 -20 -20 -20 -20 -20 -20 -20 -20 -20 -20 -20 -20 -20 -20 -20 -20 -20 -20 -20 -20 -20 -20 -20 -20 -20 -20 -19 9 -7 -20 -8 11 -18 1 3 9 8 -19 -20 -8
-20 -20 -20 -20 -20 -20 -20 -20 -20 -20 -20 -20 -20 -20 -20 -20 -20 -20 -20 -20 -20 -20 -20 -15 -1 -20 -20 -20 -20 -20 -4 5 1 -12 5 -14 -20 -20 -20 -20 0 0 -20 -20
-20 -20 -20 -20 -20 -20 -20 -20 -20 -20 -20 -20 -20 -20 -20 -20 -20 -20 -20 -20 -20 -16 -19 -20 -20 -20 -17 7 -10 -13 -13 -7 -1 2 3 -10 -20 -20 -20 -20 -2 15 12 12
-20 -20 -20 -20 -20 -20 -20 -20 -20 -20 -20 -20 -20 -20 -20 -20 -20 -20 -20 -20 -20 -17 -20 -20 -20 -20 -20 6 4 -20 -13 14 11 32 31 19 14 -19 4 -14 -3 9 12 15
-20 -20 -20 -20 -20 -20 -20 -20 -20 -20 -20 -20 -20 -20 -20 -20 -20 -20 -20 -20 -5 -20 -20 -20 -20 -16 -20 -20 -20 -19 4 7 -1 10 14 18 21 1 -9 -15 -12 -9 11 10
-10 -20 -20 -20 -20 -20 -20 -20 -20 -20 -20 -20 -20 -20 -20 -20 -20 -20 -20 -20 -20 -20 -20 -6 -16 -20 -20 -20 9 5 3 18 14 7 8 21 23 9 -16 -11 -15 -5 -7 6
-20 -20 -20 -20 -20 -20 -20 -20 -20 -20 -20 -20 -20 -20 -20 -20 -20 -20 -8 -20 -17 -20 -6 4 -20 -20 -20 5 4 -0 -3 4 -14 -16 10 13 13 10 -1 -2 -6 0 -1 -5
-20 -20 -20 -20 -20 -20 -20 -20 -20 -20 -20 -20 -20 -20 -20 -20 -20 -20 -20 -20 -20 -20 -4 6 -20 -20 -9 2 2 -0 0 4 -19 -5 -19 -19 -3 -6 -7 -6 -4 -3 -10 -20
-20 -20 -20 -20 -20 -20 -20 -20 -20 -20 -20 -20 -20 -20 -20 -18 -14 -7 3 2 -10 -13 4 3 1 -20 -1 2 3 4 2 5 -1 -1 -17 -2 -3 -6 -3 -4 -10 -20 -10 -8
-20 -20 -20 -20 -20 -20 -20 -20 -20 -20 -20 -20 -20 -15 -0 -13 -4 -20 -20 5 5 -10 6 6 6 6 -2 -0 5 4 5 -0 -7 0 0 -0 -5 -4 -10 -20 -16 -9 -16 -15
-20 -20 -20 -20 -20 -20 -20 -20 -20 -20 -10 -20 -20 -10 4 -6 3 -17 -5 5 5 5 2 5 6 3 1 -1 4 4 2 -1 -19 2 -1 -5 -2 -1 -20 -4 -9 -3 0 -8
Wind_Speed
13 15 3 10 11 8 12 10 10 10 14 12 9 8 4 3 6 5 8 11 11 11 12 14 12 12 12 10 8 5 5 9 7 5 4 3 2 1 2 2 3 5 4 5
3 11 14 12 14 13 15 14 14 14 13 10 6 7 9 8 6 2 6 7 4 5 9 11 11 11 11 10 9 7 10 6 1 0 1 3 2 2 3 5 5 4 4 5
2 5 7 6 9 16 15 14 12 11 10 7 11 5 5 4 6 2 5 6 6 3 5 6 9 9 10 9 7 5 6 4 3 1 6 3 4 4 5 5 4 4 4 4
1 2 1 8 3 6 5 8 10 11 9 10 14 12 7 6 5 6 1 4 5 3 4 5 5 8 8 9 6 6 4 4 7 4 2 5 5 6 6 3 4 5 4 5
2 4 7 11 2 2 1 3 11 10 11 11 10 8 9 9 8 7 8 5 3 3 2 4 4 7 9 6 6 8 9 10 6 5 6 6 6 5 4 5 4 3 5 4
3 2 4 0 4 2 2 2 9 9 8 8 10 3 5 11 9 3 5 5 5 2 2 3 8 9 11 11 10 10 9 7 10 6 7 7 6 5 4 5 5 3 4 4
3 2 6 3 5 1 2 3 4 6 7 8 6 4 3 4 6 10 9 7 6 13 15 15 14 13 14 13 13 11 9 5 5 5 6 5 5 5 5 6 6 4 3 3
2 2 6 5 5 3 4 4 7 7 7 5 6 6 7 9 6 7 11 13 18 17 17 16 15 14 14 13 7 2 3 5 6 7 5 6 4 4 5 8 6 5 3 3
8 4 5 3 4 3 5 4 4 5 6 7 7 8 9 8 7 8 15 18 17 15 14 12 12 11 10 5 3 1 4 6 7 8 4 4 4 5 5 5 6 4 2 2
2 4 5 3 1 0 5 8 9 9 8 9 8 10 9 6 9 12 15 14 13 13 12 10 9 10 5 1 3 3 5 7 5 4 5 4 4 4 4 0 4 4 3 2
6 8 5 7 12 11 8 9 11 11 14 14 9 9 13 15 16 14 14 12 10 10 9 7 4 3 5 2 3 6 6 5 5 3 5 6 5 5 1 2 4 6 4 3
3 9 3 10 11 9 12 11 11 11 14 15 16 15 16 15 13 11 10 9 8 7 6 5 7 4 4 3 3 4 5 4 2 3 3 4 6 4 6 10 11 12 11 7
4 6 5 12 12 13 13 13 14 14 15 12 13 12 13 11 8 8 7 5 4 3 4 3 4 5 6 4 5 5 5 5 4 4 3 3 2 5 7 7 11 13 11 11
5 4 10 7 8 13 14 13 14 13 11 10 10 10 9 7 6 5 4 3 2 4 4 5 5 6 6 6 6 7 8 9 4 5 2 2 2 4 6 8 9 8 9 13
6 9 12 13 14 12 11 11 12 12 11 10 8 7 6 6 5 4 3 3 3 5 6 7 8 9 10 7 6 6 4 5 6 3 3 5 6 6 7 7 8 8 8 5
8 14 13 12 11 11 11 11 11 8 7 10 10 10 10 8 8 7 7 9 5 5 8 8 9 10 10 11 11 9 7 7 7 5 3 4 5 7 7 8 7 7 7 7
13 11 10 10 10 10 11 12 11 9 9 9 8 7 8 7 6 8 8 7 5 8 9 9 9 11 8 10 11 9 7 6 3 2 3 5 7 7 7 7 8 6 7 6
12 11 10 10 9 11 10 10 9 9 8 7 6 6 7 8 7 8 8 9 10 10 8 5 7 8 8 11 11 9 9 8 5 6 7 7 6 5 7 8 8 8 8 7
14 13 12 12 11 10 9 7 6 7 7 6 7 8 8 8 8 9 9 9 9 8 10 10 14 13 12 11 10 8 9 11 11 10 9 7 5 6 7 8 8 8 7 7
13 13 13 13 11 9 8 6 4 8 8 8 7 7 5 4 3 4 5 6 6 6 11 13 14 13 14 14 11 10 11 11 13 12 9 5 5 6 5 8 10 7 6 4
12 11 10 11 9 9 8 6 5 6 7 4 5 3 4 6 3 3 6 7 11 13 13 15 12 12 12 15 15 11 13 12 11 10 11 8 5 3 3 3 4 5 5 4
9 9 10 9 7 8 5 5 6 4 5 3 3 3 5 8 7 7 6 9 9 15 11 8 9 16 14 20 11 12 13 12 9 9 9 7 2 4 5 5 6 6 6 6
9 9 8 7 6 8 6 4 4 5 3 3 5 6 7 6 7 7 7 10 8 12 10 8 13 17 20 11 11 12 12 11 11 10 10 9 7 7 6 6 6 6 6 7
9 8 7 6 4 3 4 6 3 5 2 3 4 3 6 5 5 6 7 9 9 10 9 9 10 14 15 9 10 10 11 10 10 10 10 12 9 9 8 8 8 8 8 9
7 7 6 4 4 5 5 5 4 6 6 6 7 6 7 5 5 6 6 6 9 8 8 11 12 10 8 9 10 9 10 9 9 9 10 9 9 9 9 8 9 9 9 9
6 5 6 8 6 5 5 5 4 5 5 5 5 5 4 4 4 5 6 8 8 9 7 8 8 8 7 9 9 9 9 9 9 9 10 9 9 9 9 10 9 9 9 9
6 4 5 6 6 6 5 5 5 5 4 4 5 7 5 5 5 6 7 7 7 7 7 7 7 8 7 8 8 8 8 8 10 8 8 9 9 9 10 9 9 9 9 10
Wind_Direction
276 270 267 296 299 255 243 235 231 254 265 280 331 13 329 90 174 217 282 208 212 186 177 172 180 183 185 175 169 172 215 225 233 183 150 170 190 240 271 307 289 266 281 291
299 292 284 271 278 278 276 275 258 270 276 284 359 36 8 7 325 277 279 295 253 209 173 177 187 188 180 174 166 189 216 224 266 28 278 36 336 348 278 261 253 267 289 291
242 348 346 320 237 249 258 263 266 268 280 314 312 330 46 353 325 298 301 306 297 233 209 200 190 176 168 167 154 210 172 183 208 36 26 327 313 324 316 288 291 295 285 291
86 308 278 242 13 344 315 308 298 306 355 7 44 32 7 309 302 330 311 340 317 266 221 197 180 154 159 170 175 145 130 57 19 354 317 13 350 306 293 324 318 287 280 272
146 221 290 310 298 2 16 339 34 32 22 8 37 352 43 40 46 25 15 351 308 307 183 150 185 119 121 144 85 97 54 36 343 19 351 325 301 316 328 329 298 294 274 252
166 233 230 135 79 27 342 204 51 27 13 350 344 338 39 20 7 333 322 329 325 309 155 108 84 84 74 83 78 61 53 35 15 335 341 311 303 337 310 294 294 287 27 18
156 238 296 338 111 23 226 66 42 5 359 355 333 18 21 6 356 346 344 0 11 56 65 68 56 76 70 59 57 55 21 317 325 300 296 304 314 293 306 306 275 260 220 209
139 147 267 125 128 120 56 1 5 349 346 338 322 314 316 311 334 19 343 59 64 67 62 55 63 70 69 68 74 54 261 283 296 299 303 285 336 323 324 307 284 270 209 224
173 203 151 181 36 12 19 348 334 319 326 336 333 322 328 339 38 46 61 60 72 75 72 67 69 79 88 128 122 48 271 290 285 268 286 336 291 293 283 302 313 285 230 186
49 253 202 185 324 88 53 24 0 342 335 349 355 353 327 4 74 71 67 77 80 79 81 78 66 55 48 150 238 284 282 270 275 324 297 283 270 269 251 304 311 302 292 234
212 260 310 73 54 40 23 18 22 4 37 26 3 346 55 65 70 75 78 76 79 85 91 104 146 195 231 240 269 271 283 301 298 302 276 273 270 268 239 226 241 282 282 273
216 77 30 44 58 39 58 49 38 34 54 40 44 62 72 72 77 88 92 103 119 136 144 173 218 257 285 283 283 282 276 275 264 283 283 300 293 300 265 250 245 238 237 228
49 44 48 89 73 73 71 59 60 60 59 62 60 74 84 97 103 119 121 111 96 113 222 285 331 280 277 280 246 237 258 256 246 247 261 278 319 306 313 313 294 255 242 242
41 323 96 87 101 88 87 88 81 78 76 79 84 87 94 100 110 92 77 64 6 345 317 302 291 277 252 249 248 232 233 246 249 250 246 288 274 287 291 285 292 289 245 233
78 69 96 89 87 90 96 96 93 89 87 83 87 89 90 82 77 54 22 330 338 310 296 304 337 323 315 312 286 270 256 252 250 227 213 235 251 255 261 266 267 277 279 251
107 85 88 99 104 103 102 102 101 106 89 60 50 31 23 24 16 8 10 38 10 330 327 320 296 296 299 295 287 281 273 255 245 239 230 244 260 269 266 262 267 275 269 265
110 112 116 118 120 123 98 80 81 72 67 61 47 32 29 10 18 21 359 1 359 321 302 286 284 302 313 301 293 283 276 275 245 220 253 247 254 271 277 272 265 265 276 263
111 124 136 128 118 96 87 75 64 68 61 55 57 50 41 33 17 356 351 344 341 326 298 321 343 336 318 312 312 309 302 292 273 253 252 253 258 267 281 278 269 270 274 270
109 97 94 97 91 84 84 80 78 90 69 52 49 40 34 25 8 359 350 338 333 332 14 1 351 331 322 314 303 296 288 286 278 266 256 247 250 267 277 281 279 269 268 268
104 93 87 82 76 84 86 64 62 75 64 52 50 42 24 8 358 336 312 325 338 27 349 352 338 327 321 323 339 324 316 316 305 279 250 230 255 268 282 292 283 263 264 274
96 101 98 99 91 86 85 85 81 62 64 58 51 31 343 312 318 301 352 344 17 1 3 342 338 3 348 340 322 310 304 298 299 296 285 253 248 236 265 295 330 345 343 330
114 111 115 116 110 102 81 78 75 67 62 40 44 27 350 6 352 4 345 23 355 12 347 354 2 0 338 328 340 346 342 323 323 319 304 290 1 25 5 349 346 350 341 336
115 118 121 122 119 114 110 95 110 82 48 19 61 35 9 351 356 346 357 10 8 357 346 5 359 360 341 347 349 352 350 356 4 357 357 1 1 5 5 359 355 346 346 346
123 128 123 117 136 117 89 61 55 113 71 13 85 78 13 350 355 14 3 352 3 348 349 357 360 359 348 352 352 356 350 2 8 357 0 358 359 3 4 356 355 356 351 340
120 131 135 174 135 80 60 36 20 40 25 10 18 9 9 13 13 355 347 349 349 353 346 352 354 354 356 353 351 357 353 357 3 359 355 353 360 355 355 356 355 348 340 337
153 108 85 66 65 53 40 29 15 18 6 3 4 345 5 11 11 358 349 343 349 349 350 347 349 352 359 353 351 355 353 360 0 354 354 355 355 347 353 351 342 337 330 322
67 57 122 102 65 49 35 20 15 353 357 39 345 316 347 5 0 0 355 345 347 349 349 348 348 354 358 352 352 356 355 2 355 349 357 357 345 353 342 336 331 326 327 323